Regional Weather Roundup
Issued by NWS

Home | Current Version | Previous Version | Text Only | Print | Product List | Glossary Off
Versions: 1 2 3 4 5 6 7 8 9 10 11 12 13 14 15 16 17 18 19 20 21 22 23 24 25 26 27 28 29 30 31 32 33 34 35 36 37 38 39 40 41 42 43 44 45 46 47 48 49 50

000
ASUS45 KCYS 010110
RWRWY

WYOMING REGIONAL WEATHER ROUNDUP
NATIONAL WEATHER SERVICE CHEYENNE WY
700 PM MDT SUN APR 30 2017

NOTE:  "FAIR" INDICATES FEW OR NO CLOUDS BELOW 12,000 FEET
WITH NO SIGNIFICANT WEATHER AND/OR OBSTRUCTIONS TO VISIBILITY.

WYZ001-010200-
YELLOWSTONE NATIONAL PARK

CITY           SKY/WX    TMP DP  RH WIND       PRES   REMARKS
LK YELLOWSTONE   N/A     37  27  67 VRB3      30.05R
W YELLOWSTONE  NOT AVBL

$$
WYZ002>013-054>058-071-098>099-010200-
NORTHERN WYOMING

CITY           SKY/WX    TMP DP  RH WIND       PRES   REMARKS
JACKSON        CLOUDY    45  30  57 S12       30.04F
CODY           PTSUNNY   54  27  35 W14G20    29.92S
GREYBULL       CLOUDY    61  27  27 NW10      29.86S
WORLAND        PTSUNNY   59  28  30 CALM      29.88S
SHERIDAN       PTSUNNY   50  35  56 W7        29.89S
BUFFALO        CLOUDY    50  30  46 W8        29.92F
GILLETTE       CLOUDY    53  38  56 W5        29.88F
HULETT         MOCLDY    55  27  33 N7        29.88S
NEWCASTLE      FAIR      55  21  26 NW17G25   29.86F

$$
WYZ014>020-022>026-101>103-010200-
CENTRAL WYOMING

CITY           SKY/WX    TMP DP  RH WIND       PRES   REMARKS
BIG PINEY      CLOUDY    44  28  53 NW13      30.07S
PINEDALE       CLOUDY    41  28  60 NW16G22   30.07S
DUBOIS         CLOUDY    43  27  52 NW14G22   30.00S
LANDER         CLOUDY    51  32  48 CALM      29.91F
RIVERTON       PTSUNNY   54  29  38 CALM      29.93S
CASPER         FAIR      53  25  33 W15       29.91F
DOUGLAS        CLOUDY    56  25  30 NW18G25   29.89S

$$
WYZ021-027>030-104>119-010200-
SOUTHERN WYOMING

CITY           SKY/WX    TMP DP  RH WIND       PRES   REMARKS
EVANSTON       CLOUDY    44  26  49 W14       30.12S
KEMMERER         N/A     41  30  65 W5        30.10F
FORT BRIDGER   CLOUDY    46  28  48 W17G23    30.14R
ROCK SPRINGS   CLOUDY    49  27  42 W17G31    30.04R
DIXON            N/A     51  25  36 W13       30.03S
RAWLINS        FAIR      50  24  36 NW12      29.97R
SARATOGA       CLOUDY    50  19  29 NW14G30   29.98S
LARAMIE        FAIR      47  20  34 NW22G31   29.93S
CHEYENNE       CLOUDY    52  19  27 NW18G31   29.88F
TORRINGTON     FAIR      57  19  22 N20G28    29.83F
PINE BLUFFS    FAIR      52  19  28 N20G26    29.84F

$$



USA.gov is the U.S. government's official web portal to all federal, state and local government web resources and services.